Regional Weather Roundup
Issued by NWS State College, PA

Home | Current Version | Previous Version | Text Only | Print | Product List | Glossary On
Versions: 1 2 3 4 5 6 7 8 9 10 11 12 13 14 15 16 17 18 19 20 21 22 23 24 25 26 27 28 29 30 31 32 33 34 35 36 37 38 39 40 41 42 43 44 45 46 47 48 49 50
849
ASUS41 KCTP 010910
RWRCTP

REGIONAL WEATHER ROUNDUP
NATIONAL WEATHER SERVICE STATE COLLEGE PA
400 AM EST WED MAR 01 2017

Note: "fair" indicates few or no clouds below 12,000 feet with no
significant weather and/or obstructions to visibility.

* = STATION THAT DOES NOT REPORT PRECIPITATION /E.G. RAIN...SNOW...ETC/
    THUNDER OR FOG.

PAZ002>004-007>009-013>016-020>023-029>032-011000-
WESTERN PENNSYLVANIA

CITY           SKY/WX    TMP DP  RH WIND       PRES   REMARKS
ERIE           CLOUDY    62  52  69 SW9G23    29.54F
MEADVILLE      CLOUDY    57  52  83 S10G21    29.55F
FRANKLIN*      CLOUDY    55  52  88 S17       29.63F
NEW CASTLE     PTSUNNY   58  56  93 SW10G21   29.67F
BEAVER COUNTY  NOT AVBL
BUTLER*        CLOUDY    61  54  77 S10G17    29.70F
PITTSBURGH INT CLOUDY    61  57  87 SW13      29.69F
PITTSBURGH     CLOUDY    59  53  80 S12       29.71F
INDIANA*       CLOUDY    59  55  88 SW12      29.76F
LATROBE        CLOUDY    59  57  94 SW16G22   29.75F
WASHINGTON CO* CLOUDY    61  55  82 SW13G20   29.73F
$$

PAZ004>006-010>012-017>019-024>028-033>037-041-042-045-046-049>053-011000-
CENTRAL PENNSYLVANIA

CITY           SKY/WX    TMP DP  RH WIND       PRES   REMARKS
BRADFORD       CLOUDY    56  54  93 SW10G21   29.66F
DUBOIS         CLOUDY    58  53  84 SW16G24   29.70F
CLEARFIELD       N/A    N/A N/A N/A MISG      29.73F
JOHNSTOWN      CLOUDY    56  54  93 S12G23    29.76F
ALTOONA        MOCLDY    53  50  89 SW10      29.78F
STATE COLLEGE  CLOUDY    50  46  88 W5        29.76F
WILLIAMSPORT   CLOUDY    55  48  77 E7        29.76F
SELINSGROVE    CLOUDY    54  50  86 S9        29.80F
FT INDIANTOWN  CLOUDY    53  53 100 S5        29.83F
CAPITAL CITY   CLOUDY    56  52  86 CALM      29.84F
HARRISBURG     CLOUDY    55  54  96 SW7       29.83F
YORK           CLOUDY    55  54  96 VRB6      29.84F
$$

PAZ038>040-043-044-047-048-054-055-060>062-067>071-011000-
EASTERN PENNSYLVANIA

CITY           SKY/WX    TMP DP  RH WIND       PRES   REMARKS
SCRANTON       CLOUDY    56  51  84 SW6       29.79F
MOUNT POCONO   CLOUDY    50  50 100 SW13      29.82F
ALLENTOWN      CLOUDY    57  53  86 SW6       29.85F
QUAKERTOWN*    CLOUDY    57  55  94 SW6       29.86F
READING        CLOUDY    57  56  96 S5        29.84F
LANCASTER      CLOUDY    57  56  96 S5        29.84F
COATESVILLE    CLOUDY    55  55 100 S8G15     29.88F FOG
POTTSTOWN      CLOUDY    58  55  90 SW8       29.87F
BLUE BELL      CLOUDY    55  55 100 SW8       29.85F
DOYLESTOWN     CLOUDY    58  57  97 SW10G20   29.85F
WILLOW GROVE   NOT AVBL
NORTH PHILA    CLOUDY    59  57  93 SW9       29.88F
PHILADELPHIA   CLOUDY    57  55  93 S8        29.88F
$$




USA.gov is the U.S. government's official web portal to all federal, state and local government web resources and services.